FW5890 Weather Reports


Display with metric or nautical units.
time (UTC)temp
F
wind
direction
speed
MPH
gust
MPH
rain 1hr
in
rain 24hr
in
rain mn
in
humidity
%
barometer
mb
20260510173020 58 326 3.0 9.0 0.00 0.00 0.00 45 1020.5
20260510172559 59 68 1.0 8.0 0.00 0.00 0.00 47 1020.6
20260510172009 58 152 1.0 10.0 0.00 0.00 0.00 47 1020.6
20260510171535 58 260 3.0 10.0 0.00 0.00 0.00 46 1020.5
20260510171012 58 272 2.0 5.0 0.00 0.00 0.00 48 1020.5
20260510170610 57 323 1.0 7.0 0.00 0.00 0.00 50 1020.6
20260510170021 57 131 1.0 8.0 0.00 0.00 0.00 51 1020.7
20260510165539 56 96 1.0 8.0 0.00 0.00 0.00 49 1020.8
20260510165013 56 119 1.0 5.0 0.00 0.00 0.00 49 1020.7
20260510164544 56 199 1.0 5.0 0.00 0.00 0.00 47 1020.7
20260510164052 56 341 1.0 5.0 0.00 0.00 0.00 50 1020.8
20260510163503 56 123 2.0 5.0 0.00 0.00 0.00 47 1020.7
20260510163023 56 192 1.0 4.0 0.00 0.00 0.00 47 1020.7
20260510162542 57 319 1.0 3.0 0.00 0.00 0.00 46 1020.7
20260510162007 57 202 0.0 7.0 0.00 0.00 0.00 50 1020.7
20260510161543 57 109 2.0 7.0 0.00 0.00 0.00 48 1020.6
20260510161035 57 140 1.0 8.0 0.00 0.00 0.00 50 1020.6
20260510160509 56 121 3.0 8.0 0.00 0.00 0.00 49 1020.5
20260510160029 56 191 2.0 8.0 0.00 0.00 0.00 50 1020.4
20260510155552 56 309 3.0 8.0 0.00 0.00 0.00 49 1020.4
20260510155023 56 205 0.0 9.0 0.00 0.00 0.00 55 1020.4
20260510154607 55 126 2.0 9.0 0.00 0.00 0.00 50 1020.5
20260510154045 56 147 1.0 7.0 0.00 0.00 0.00 50 1020.5
20260510153540 55 134 2.0 6.0 0.00 0.00 0.00 48 1020.4
20260510153059 55 171 1.0 6.0 0.00 0.00 0.00 50 1020.3
20260510152533 55 109 1.0 7.0 0.00 0.00 0.00 52 1020.3
20260510152013 55 278 0.0 5.0 0.00 0.00 0.00 52 1020.2
20260510151603 55 134 0.0 5.0 0.00 0.00 0.00 50 1020.2
20260510151032 55 158 2.0 5.0 0.00 0.00 0.00 50 1020.2
20260510150609 54 114 1.0 6.0 0.00 0.00 0.00 53 1020.3
20260510150019 53 286 1.0 6.0 0.00 0.00 0.00 53 1020.2
20260510145606 53 191 1.0 9.0 0.00 0.00 0.00 52 1020.2
20260510145013 54 128 4.0 9.0 0.00 0.00 0.00 49 1020.2
20260510144542 54 110 1.0 7.0 0.00 0.00 0.00 51 1020.3
20260510144053 54 209 1.0 5.0 0.00 0.00 0.00 53 1020.2
20260510143613 54 321 1.0 5.0 0.00 0.00 0.00 52 1020.1
20260510143054 54 259 1.0 4.0 0.00 0.00 0.00 56 1020.2
20260510142604 54 305 1.0 5.0 0.00 0.00 0.00 55 1020.1
20260510142048 53 146 1.0 6.0 0.00 0.00 0.00 54 1020.1
20260510141526 53 122 2.0 6.0 0.00 0.00 0.00 56 1020.1
20260510141054 52 158 1.0 5.0 0.00 0.00 0.00 57 1020.1
20260510140503 51 159 0.0 4.0 0.00 0.00 0.00 58 1020.1
20260510140048 50 141 0.0 6.0 0.00 0.00 0.00 58 1020.1
20260510135520 50 129 2.0 6.0 0.00 0.00 0.00 57 1020.0
20260510135101 50 134 0.0 6.0 0.00 0.00 0.00 60 1020.0
20260510134513 50 134 1.0 6.0 0.00 0.00 0.00 58 1020.0
20260510134056 50 130 2.0 6.0 0.00 0.00 0.00 57 1020.1
20260510133532 50 159 1.0 4.0 0.00 0.00 0.00 61 1020.0
20260510133005 49 207 1.0 3.0 0.00 0.00 0.00 61 1020.0
20260510132532 49 254 0.0 3.0 0.00 0.00 0.00 61 1020.0
20260510132053 48 306 0.0 1.0 0.00 0.00 0.00 63 1019.9
20260510131514 48 309 0.0 2.0 0.00 0.00 0.00 62 1019.9
20260510131043 47 310 0.0 2.0 0.00 0.00 0.00 62 1019.9
20260510130531 47 309 0.0 0.0 0.00 0.00 0.00 64 1019.9
20260510130059 47 309 0.0 2.0 0.00 0.00 0.00 65 1019.8
20260510125534 47 360 0.0 2.0 0.00 0.00 0.00 66 1019.7
20260510125004 46 360 0.0 3.0 0.00 0.00 0.00 68 1019.7
20260510124528 46 360 0.0 3.0 0.00 0.00 0.00 68 1019.7
20260510124022 45 360 0.0 2.0 0.00 0.00 0.00 68 1019.7
20260510123551 45 360 0.0 0.0 0.00 0.00 0.00 70 1019.6
20260510123024 44 360 0.0 1.0 0.00 0.00 0.00 72 1019.6
20260510122515 44 360 0.0 1.0 0.00 0.00 0.00 72 1019.5
20260510122100 43 360 0.0 0.0 0.00 0.00 0.00 76 1019.5
20260510121536 42 360 0.0 0.0 0.00 0.00 0.00 77 1019.4
20260510121017 42 360 0.0 0.0 0.00 0.00 0.00 82 1019.3
20260510120509 41 360 0.0 0.0 0.00 0.00 0.00 83 1019.2
20260510120059 40 360 0.0 0.0 0.00 0.00 0.00 84 1019.0
20260510115522 39 360 0.0 0.0 0.00 0.00 0.00 85 1018.9
20260510115105 39 360 0.0 0.0 0.00 0.00 0.00 86 1018.9
20260510114556 38 360 0.0 0.0 0.00 0.00 0.00 88 1018.9
20260510114042 38 360 0.0 0.0 0.00 0.00 0.00 87 1018.8
20260510113542 38 360 0.0 0.0 0.00 0.00 0.00 87 1018.6
20260510113025 37 360 0.0 0.0 0.00 0.00 0.00 87 1018.6
20260510112609 37 360 0.0 0.0 0.00 0.00 0.00 87 1018.6
20260510112035 37 360 0.0 0.0 0.00 0.00 0.00 87 1018.5
20260510111516 37 360 0.0 0.0 0.00 0.00 0.00 87 1018.5
20260510111051 37 360 0.0 0.0 0.00 0.00 0.00 87 1018.5
20260510110524 36 360 0.0 0.0 0.00 0.00 0.00 87 1018.3
20260510110018 36 360 0.0 0.0 0.00 0.00 0.00 87 1018.4
20260510105554 36 360 0.0 0.0 0.00 0.00 0.00 87 1018.3
20260510105025 36 360 0.0 0.0 0.00 0.00 0.00 88 1018.2
20260510104505 36 360 0.0 0.0 0.00 0.00 0.00 88 1018.1
20260510104043 36 360 0.0 0.0 0.00 0.00 0.00 88 1018.1
20260510103604 36 360 0.0 0.0 0.00 0.00 0.00 88 1018.0
20260510103026 36 360 0.0 0.0 0.00 0.00 0.00 88 1018.1
20260510102523 36 360 0.0 0.0 0.00 0.00 0.00 88 1018.0
20260510102018 36 360 0.0 0.0 0.00 0.00 0.00 88 1017.9
20260510101609 36 360 0.0 0.0 0.00 0.00 0.00 87 1017.8
20260510101041 36 360 0.0 0.0 0.00 0.00 0.00 87 1017.7
20260510100529 36 360 0.0 0.0 0.00 0.00 0.00 87 1017.6
20260510100105 36 360 0.0 0.0 0.00 0.00 0.00 87 1017.4
20260510095533 36 360 0.0 0.0 0.00 0.00 0.00 87 1017.4
20260510095011 36 360 0.0 0.0 0.00 0.00 0.00 88 1017.3
20260510094550 36 360 0.0 0.0 0.00 0.00 0.00 88 1017.2
20260510094012 36 360 0.0 0.0 0.00 0.00 0.00 88 1017.2
20260510093606 36 360 0.0 0.0 0.00 0.00 0.00 88 1017.2
20260510093029 36 360 0.0 0.0 0.00 0.00 0.00 87 1017.1
20260510092601 36 360 0.0 0.0 0.00 0.00 0.00 87 1017.0
20260510092025 36 360 0.0 0.0 0.00 0.00 0.00 87 1017.0
20260510091602 36 360 0.0 0.0 0.00 0.00 0.00 87 1017.0
20260510091043 36 360 0.0 0.0 0.00 0.00 0.00 87 1017.0
20260510090518 36 360 0.0 0.0 0.00 0.00 0.00 86 1016.9
20260510090049 36 360 0.0 0.0 0.00 0.00 0.00 86 1016.9
20260510085531 36 360 0.0 0.0 0.00 0.00 0.00 86 1016.8
20260510085006 36 360 0.0 0.0 0.00 0.00 0.00 86 1016.7
20260510084550 36 360 0.0 0.0 0.00 0.00 0.00 86 1016.6
20260510084110 36 360 0.0 0.0 0.00 0.00 0.00 85 1016.7
20260510083523 36 360 0.0 0.0 0.00 0.00 0.00 85 1016.6
20260510083048 36 360 0.0 0.0 0.00 0.00 0.00 85 1016.6
20260510082522 36 360 0.0 0.0 0.00 0.00 0.00 85 1016.4
20260510082019 37 360 0.0 0.0 0.00 0.00 0.00 84 1016.4
20260510081543 37 360 0.0 0.0 0.00 0.00 0.00 84 1016.3
20260510081018 37 360 0.0 0.0 0.00 0.00 0.00 84 1016.3
20260510080556 37 360 0.0 0.0 0.00 0.00 0.00 83 1016.2
20260510080032 37 360 0.0 0.0 0.00 0.00 0.00 82 1016.2
20260510075502 37 360 0.0 0.0 0.00 0.00 0.00 82 1016.2
20260510075032 38 360 0.0 0.0 0.00 0.00 0.00 82 1016.1
20260510074503 38 360 0.0 0.0 0.00 0.00 0.00 82 1016.0
20260510074040 38 360 0.0 0.0 0.00 0.00 0.00 81 1016.0
20260510073511 38 360 0.0 0.0 0.00 0.00 0.00 81 1016.1
20260510073032 39 360 0.0 0.0 0.00 0.00 0.00 81 1016.1
20260510072553 39 360 0.0 0.0 0.00 0.00 0.00 80 1016.1
20260510072002 39 360 0.0 0.0 0.00 0.00 0.00 79 1016.1
20260510071522 39 360 0.0 0.0 0.00 0.00 0.00 77 1016.2
20260510071041 39 360 0.0 0.0 0.00 0.00 0.00 76 1016.1
20260510070516 40 360 0.0 0.0 0.00 0.00 0.00 75 1016.1
20260510070158 40 360 0.0 0.0 0.00 0.00 0.00 75 1016.1
20260510065506 40 360 0.0 0.0 0.00 0.00 0.00 76 1016.1
20260510065026 41 360 0.0 0.0 0.00 0.00 0.00 76 1016.2
20260510064638 41 360 0.0 0.0 0.00 0.00 0.00 76 1016.1
20260510064020 42 360 0.0 0.0 0.00 0.00 0.00 75 1016.0
20260510063604 42 360 0.0 0.0 0.00 0.00 0.00 75 1016.0
20260510063012 42 360 0.0 0.0 0.00 0.00 0.00 74 1016.0
20260510062555 43 360 0.0 0.0 0.00 0.00 0.00 73 1016.0
20260510062033 43 360 0.0 0.0 0.00 0.00 0.00 74 1015.9
20260510061556 43 360 0.0 0.0 0.00 0.00 0.00 70 1016.0
20260510061024 43 360 0.0 0.0 0.00 0.00 0.00 67 1015.9
20260510060546 43 360 0.0 0.0 0.00 0.00 0.00 67 1015.9
20260510060014 43 360 0.0 0.0 0.00 0.00 0.00 66 1015.9
20260510055557 43 360 0.0 0.0 0.00 0.00 0.00 66 1015.9
20260510055008 44 360 0.0 0.0 0.00 0.00 0.00 65 1015.8
20260510054550 44 360 0.0 0.0 0.00 0.00 0.00 64 1015.7
20260510054005 44 360 0.0 0.0 0.00 0.00 0.00 63 1015.7
20260510053543 44 360 0.0 0.0 0.00 0.00 0.00 62 1015.6
20260510053016 44 360 0.0 0.0 0.00 0.00 0.00 60 1015.6
20260510052525 45 360 0.0 0.0 0.00 0.00 0.00 60 1015.5
20260510052046 45 360 0.0 0.0 0.00 0.00 0.00 60 1015.5
20260510051523 46 360 0.0 0.0 0.00 0.00 0.00 62 1015.5
20260510051039 46 360 0.0 0.0 0.00 0.00 0.00 59 1015.5
20260510050600 47 360 0.0 0.0 0.00 0.00 0.00 56 1015.5
20260510050014 47 360 0.0 0.0 0.00 0.00 0.00 56 1015.6
20260510045534 47 360 0.0 0.0 0.00 0.00 0.00 55 1015.6
20260510045110 47 360 0.0 0.0 0.00 0.00 0.00 55 1015.5
20260510044520 47 360 0.0 0.0 0.00 0.00 0.00 55 1015.6
20260510044055 48 360 0.0 0.0 0.00 0.00 0.00 56 1015.6
20260510043514 48 360 0.0 0.0 0.00 0.00 0.00 55 1015.5
20260510043034 48 360 0.0 1.0 0.00 0.00 0.00 54 1015.4
20260510042525 48 360 0.0 0.0 0.00 0.00 0.00 55 1015.3
20260510042041 48 360 0.0 0.0 0.00 0.00 0.00 54 1015.3
20260510041602 49 360 0.0 2.0 0.00 0.00 0.00 53 1015.2
20260510041017 49 360 0.0 2.0 0.00 0.00 0.00 52 1015.2
20260510040534 49 360 0.0 1.0 0.00 0.00 0.00 52 1015.1
20260510040006 49 360 0.0 2.0 0.00 0.00 0.00 51 1015.0
20260510035525 49 360 0.0 2.0 0.00 0.00 0.00 51 1015.0
20260510035046 49 360 0.0 0.0 0.00 0.00 0.00 52 1014.9
20260510034520 50 360 0.0 1.0 0.00 0.00 0.00 51 1014.9
20260510034056 50 290 0.0 1.0 0.00 0.00 0.00 50 1014.8
20260510033513 50 290 0.0 1.0 0.00 0.00 0.00 51 1014.7
20260510033033 50 290 0.0 2.0 0.00 0.00 0.00 49 1014.7
20260510032504 50 290 0.0 2.0 0.00 0.00 0.00 48 1014.7
20260510032024 50 286 0.0 1.0 0.00 0.00 0.00 48 1014.6
20260510031557 51 306 0.0 2.0 0.00 0.00 0.00 48 1014.5
20260510031017 51 306 0.0 2.0 0.00 0.00 0.00 49 1014.4
20260510030605 51 307 0.0 1.0 0.00 0.00 0.00 48 1014.4
20260510030048 51 307 0.0 1.0 0.00 0.00 0.00 47 1014.3
20260510025508 51 307 0.0 3.0 0.00 0.00 0.00 47 1014.3
20260510025054 52 307 0.0 3.0 0.00 0.00 0.00 46 1014.2
20260510024530 52 248 0.0 3.0 0.00 0.00 0.00 45 1014.1
20260510024047 52 360 0.0 2.0 0.00 0.00 0.00 47 1014.0
20260510023521 52 360 0.0 2.0 0.00 0.00 0.00 45 1013.9
20260510023106 52 360 0.0 4.0 0.00 0.00 0.00 45 1013.7
20260510022542 52 360 0.0 5.0 0.00 0.00 0.00 44 1013.6
20260510022103 53 360 0.0 5.0 0.00 0.00 0.00 43 1013.5
20260510021523 53 360 1.0 3.0 0.00 0.00 0.00 44 1013.3
20260510021038 53 360 0.0 2.0 0.00 0.00 0.00 44 1013.2
20260510020556 53 360 0.0 2.0 0.00 0.00 0.00 44 1013.1
20260510020005 53 360 0.0 2.0 0.00 0.00 0.00 43 1012.9
20260510015552 53 242 0.0 3.0 0.00 0.00 0.00 43 1012.8
20260510015027 54 236 0.0 5.0 0.00 0.00 0.00 42 1012.6
20260510014602 54 261 1.0 5.0 0.00 0.00 0.00 41 1012.6
20260510014010 54 294 0.0 9.0 0.00 0.00 0.00 42 1012.6
20260510013536 54 18 1.0 9.0 0.00 0.00 0.00 40 1012.5
20260510013019 55 188 0.0 3.0 0.00 0.00 0.00 41 1012.4
20260510012552 55 176 0.0 3.0 0.00 0.00 0.00 41 1012.3
20260510012010 55 188 1.0 4.0 0.00 0.00 0.00 39 1012.2
20260510011536 55 221 1.0 5.0 0.00 0.00 0.00 38 1012.1
20260510011014 55 188 0.0 5.0 0.00 0.00 0.00 38 1012.0
20260510010539 55 178 1.0 5.0 0.00 0.00 0.00 38 1012.0
20260510010021 56 273 1.0 6.0 0.00 0.00 0.00 37 1011.9
20260510005605 56 321 1.0 4.0 0.00 0.00 0.00 38 1011.8
20260510005040 56 241 1.0 9.0 0.00 0.00 0.00 38 1011.8
20260510004535 56 74 2.0 9.0 0.00 0.00 0.00 37 1011.7
20260510004023 56 205 1.0 5.0 0.00 0.00 0.00 38 1011.7
20260510003552 56 248 2.0 5.0 0.00 0.00 0.00 37 1011.6
20260510003101 57 198 1.0 5.0 0.00 0.00 0.00 38 1011.6
20260510002503 57 302 0.0 8.0 0.00 0.00 0.00 38 1011.4
20260510002046 57 169 1.0 8.0 0.00 0.00 0.00 36 1011.4
20260510001529 57 134 1.0 4.0 0.00 0.00 0.00 36 1011.4
20260510001056 57 310 1.0 7.0 0.00 0.00 0.00 35 1011.4
20260510000514 57 346 1.0 7.0 0.00 0.00 0.00 36 1011.2
20260510000059 58 173 1.0 6.0 0.00 0.00 0.00 35 1011.1
20260509235522 58 152 2.0 10.0 0.00 0.00 0.00 35 1011.1
20260509235004 58 189 1.0 10.0 0.00 0.00 0.00 37 1011.1
20260509234551 58 145 2.0 9.0 0.00 0.00 0.00 35 1011.0
20260509234031 58 254 2.0 9.0 0.00 0.00 0.00 36 1010.9
20260509233523 59 227 1.0 10.0 0.00 0.00 0.00 36 1010.9
20260509233003 59 300 2.0 10.0 0.00 0.00 0.00 35 1010.9
20260509232529 59 64 1.0 10.0 0.00 0.00 0.00 35 1010.9
20260509232009 59 52 2.0 8.0 0.00 0.00 0.00 34 1010.7
20260509231504 59 260 2.0 8.0 0.00 0.00 0.00 35 1010.7
20260509231100 59 329 2.0 8.0 0.00 0.00 0.00 34 1010.7
20260509230538 59 5 1.0 6.0 0.00 0.00 0.00 33 1010.7
20260509230022 60 91 2.0 9.0 0.00 0.00 0.00 33 1010.5
20260509225600 60 221 3.0 9.0 0.00 0.00 0.00 32 1010.5
20260509225032 60 295 1.0 6.0 0.00 0.00 0.00 36 1010.4
20260509224509 60 153 2.0 6.0 0.00 0.00 0.00 33 1010.3
20260509224004 60 320 2.0 6.0 0.00 0.00 0.00 33 1010.2
20260509223600 61 311 2.0 8.0 0.00 0.00 0.00 33 1010.2
20260509223033 61 59 3.0 9.0 0.00 0.00 0.00 34 1010.1
20260509222517 61 121 2.0 7.0 0.00 0.00 0.00 31 1010.1
20260509222037 61 221 1.0 6.0 0.00 0.00 0.00 33 1010.0
20260509221507 62 323 2.0 9.0 0.00 0.00 0.00 35 1010.0
20260509221042 62 171 1.0 9.0 0.00 0.00 0.00 35 1010.0
20260509220507 62 317 2.0 6.0 0.00 0.00 0.00 34 1009.9
20260509220050 61 184 1.0 9.0 0.00 0.00 0.00 35 1009.9
20260509215519 62 253 2.0 11.0 0.00 0.00 0.00 33 1009.9
20260509215105 62 47 3.0 11.0 0.00 0.00 0.00 33 1009.9
20260509214536 62 192 2.0 8.0 0.00 0.00 0.00 33 1009.9
20260509214008 61 331 2.0 10.0 0.00 0.00 0.00 34 1009.9
20260509213529 62 341 2.0 10.0 0.00 0.00 0.00 35 1009.8
20260509213003 62 79 1.0 5.0 0.00 0.00 0.00 34 1009.9
20260509212522 61 325 2.0 5.0 0.00 0.00 0.00 35 1009.8
20260509212048 61 202 2.0 6.0 0.00 0.00 0.00 33 1009.8
20260509211520 61 341 2.0 10.0 0.00 0.00 0.00 34 1009.8
20260509211057 61 215 2.0 12.0 0.00 0.00 0.00 34 1009.7
20260509210507 61 258 2.0 12.0 0.00 0.00 0.00 34 1009.6
20260509210027 61 307 5.0 12.0 0.00 0.00 0.00 32 1009.4
20260509205501 61 105 2.0 10.0 0.00 0.00 0.00 35 1009.6
20260509205020 61 200 3.0 10.0 0.00 0.00 0.00 34 1009.6
20260509204541 61 328 4.0 10.0 0.00 0.00 0.00 36 1009.6
20260509204017 61 347 2.0 9.0 0.00 0.00 0.00 35 1009.6
20260509203534 61 111 2.0 15.0 0.00 0.00 0.00 37 1009.5
20260509203057 62 332 4.0 15.0 0.00 0.00 0.00 36 1009.3
20260509202531 62 246 2.0 8.0 0.00 0.00 0.00 35 1009.4
20260509202049 62 217 1.0 4.0 0.00 0.00 0.00 37 1009.4
20260509201522 62 120 1.0 7.0 0.00 0.00 0.00 37 1009.3
20260509201042 61 239 2.0 10.0 0.00 0.00 0.00 37 1009.3
20260509200603 61 71 4.0 10.0 0.00 0.00 0.00 35 1009.2
20260509200041 62 319 3.0 11.0 0.00 0.00 0.00 38 1009.2
20260509195507 62 277 2.0 11.0 0.00 0.00 0.00 37 1009.2
20260509195026 61 13 1.0 12.0 0.00 0.00 0.00 39 1009.1
20260509194555 62 309 2.0 13.0 0.00 0.00 0.00 38 1009.2
20260509194024 62 346 2.0 5.0 0.00 0.00 0.00 40 1009.1
20260509193607 62 304 1.0 7.0 0.00 0.00 0.00 37 1009.1
20260509193020 61 71 2.0 9.0 0.00 0.00 0.00 38 1009.0
20260509192537 61 323 2.0 9.0 0.00 0.00 0.00 40 1009.0
20260509192058 61 300 1.0 11.0 0.00 0.00 0.00 38 1008.9
20260509191504 61 185 2.0 6.0 0.00 0.00 0.00 36 1008.9
20260509191029 61 327 2.0 9.0 0.00 0.00 0.00 37 1008.9
20260509190544 61 217 2.0 9.0 0.00 0.00 0.00 41 1008.9
20260509190010 60 244 1.0 13.0 0.00 0.00 0.00 41 1008.8
20260509185539 60 339 5.0 13.0 0.00 0.00 0.00 40 1008.8
20260509185019 60 279 4.0 13.0 0.00 0.00 0.00 41 1008.7
20260509184557 60 41 3.0 11.0 0.00 0.00 0.00 42 1008.6
20260509184038 60 144 3.0 12.0 0.00 0.00 0.00 42 1008.6
20260509183518 61 21 2.0 7.0 0.00 0.00 0.00 44 1008.6
20260509183101 60 236 2.0 8.0 0.00 0.00 0.00 44 1008.7
20260509182511 60 306 3.0 8.0 0.00 0.00 0.00 42 1008.5
20260509182040 60 315 2.0 10.0 0.00 0.00 0.00 43 1008.5
20260509181518 60 296 2.0 10.0 0.00 0.00 0.00 42 1008.5
20260509181057 60 219 3.0 12.0 0.00 0.00 0.00 42 1008.4
20260509180511 60 341 2.0 12.0 0.00 0.00 0.00 42 1008.3
20260509180027 60 121 3.0 9.0 0.00 0.00 0.00 43 1008.4
20260509175548 60 165 2.0 9.0 0.00 0.00 0.00 40 1008.3
20260509175107 60 165 3.0 9.0 0.00 0.00 0.00 42 1008.3
20260509174536 60 5 2.0 8.0 0.00 0.00 0.00 46 1008.3
20260509174037 60 124 2.0 9.0 0.00 0.00 0.00 42 1008.2
20260509173556 60 252 3.0 13.0 0.00 0.00 0.00 44 1008.2